EXPRESS-AM3

Last updated on May 18, 2019, 3:07 a.m. UTC

1 28707U 05023A   19137.28868913 -.00000333  00000-0  00000+0 0  9999
2 28707   0.9232  93.3729 0001231 220.3066 127.9286  1.00268957 50896
UTC
Height (km)
Latitude
Longitude
Inclination
Orbital Period
UTC large
Height (km)
Speed (km/s)
/
Latitude / Longitude
Inclination (degrees)
Orbital Period (minutes)
Azimuth
Elevation
Range (km)
Doppler Factor
iOS Compass Heading
iOS Angle

Next 30 passes for location: Hong Kong

Rise time Rise Azimuth (degrees) Set time Set Azimuth (degrees) Duration Max altitude (degrees)

No matching passes for this satellites